Regional Weather Roundup
Issued by NWS

Home | Current Version | Previous Version | Graphics & Text | Print | Product List | Glossary On
Versions: 1 2 3 4 5 6 7 8 9 10 11 12 13 14 15 16 17 18 19 20 21 22 23 24 25 26 27 28 29 30 31 32 33 34 35 36 37 38 39 40 41 42 43 44 45 46 47 48 49 50
000
ASUS43 KTOP 062108
RWRKS

WEATHER ROUNDUP FOR KANSAS
NATIONAL WEATHER SERVICE GOODLAND KS
400 PM CDT FRI MAY 06 2016

NOTE:  "FAIR" INDICATES FEW OR NO CLOUDS BELOW 12,000 FEET WITH NO
SIGNIFICANT WEATHER AND/OR OBSTRUCTIONS TO VISIBILITY.

KSZ001>006-013>018-027>032-041>047-062200-
NORTHWEST KANSAS

CITY           SKY/WX    TMP DP  RH WIND       PRES   REMARKS
GOODLAND       CLOUDY    86  37  17 S22       29.90F
HAYS           SUNNY     84  52  32 S24       29.92F
HILL CITY      SUNNY     88  47  24 S14G25    29.90F
RUSSELL        SUNNY     85  49  28 S21G33    29.92F
$$

KSZ061>065-074>080-084>089-062200-
SOUTHWEST KANSAS

CITY           SKY/WX    TMP DP  RH WIND       PRES   REMARKS
DODGE CITY     SUNNY     81  49  32 S21G28    29.97F
ELKHART          N/A     83  42  23 S21         N/A
GARDEN CITY    SUNNY     83  45  26 S18G29    29.95F
GREAT BEND     SUNNY     84  52  32 S20G26    29.94F
LIBERAL        SUNNY     84  48  28 S18G30    29.97F
PRATT          SUNNY     81  48  31 S20G25    29.98F
$$

KSZ066>073-081>083-090>101-062200-
SOUTHEAST KANSAS

CITY           SKY/WX    TMP DP  RH WIND       PRES   REMARKS
CHANUTE        SUNNY     79  50  36 S9        30.03F
COFFEYVILLE    SUNNY     80  50  34 S7        30.03F
HUTCHINSON     SUNNY     84  49  29 S18G26    29.99F
MEDICINE LODGE   N/A     84  46  26 S15G24    29.98F
NEWTON         SUNNY     82  45  26 S16G25    30.03F
PARSONS        SUNNY     80  51  36 S7        30.04F
WICHITA INTL   MOSUNNY   83  47  28 S17       30.00F
WICHITA JABRA  SUNNY     81  49  32 S12G21    30.00F
WICHITA MCCONL SUNNY     82  47  29 S15       30.01F
WINFIELD       SUNNY     82  47  29 S13       30.44R
$$

KSZ007>012-019>026-033>040-048>060-102>105-062200-
NORTHEAST KANSAS

CITY           SKY/WX    TMP DP  RH WIND       PRES   REMARKS
CONCORDIA      SUNNY     82  45  27 S21       29.95F
EMPORIA        SUNNY     83  51  33 S12       30.00F
LAWRENCE       SUNNY     82  52  35 S12G18    29.99F
MANHATTAN      SUNNY     85  44  23 S15G23    29.96F
MARYSVILLE     MOSUNNY   82  43  24 S16G22    29.95F
OLATHE IND     SUNNY     80  49  33 S10       30.01F
OLATHE EXE     SUNNY     79  50  36 S8        30.01F
SALINA         MOSUNNY   83  46  27 S15G25    29.96F
TOPEKA BILLARD SUNNY     83  46  27 S13       29.98F
TOPEKA FORBES  SUNNY     85  49  28 S12G21    29.99F
$$




USA.gov is the U.S. government's official web portal to all federal, state and local government web resources and services.